SCP
4 5 5 4 3 2 2 2 2 2 2 2 2 2 2 1 1 2 2 2 1 1 1 1 1 1 1 1 1 2 2 1 1 1 1 0 0 0 0 1 1 1 1
5 5 5 4 3 2 2 2 2 2 2 2 2 2 2 1 1 1 1 1 1 1 1 1 1 1 1 1 1 1 1 1 1 1 1 1 1 1 1 1 1 1 1
5 6 5 4 3 2 2 2 2 2 1 1 2 2 2 1 1 1 1 1 1 1 1 1 1 1 1 1 1 1 1 1 1 1 1 1 1 1 1 1 1 1 1
6 6 5 4 3 3 3 3 3 2 2 2 2 2 2 1 2 2 2 2 1 1 1 1 1 1 1 1 1 1 1 1 1 1 1 1 2 2 2 3 3 2 2
7 7 6 5 5 5 4 4 4 4 3 3 2 2 2 2 2 2 2 2 2 1 1 1 1 1 1 1 1 1 1 1 1 1 1 1 2 2 2 3 3 3 2
7 7 6 6 7 7 6 6 6 6 5 5 4 3 3 2 2 2 3 3 3 2 2 1 1 1 1 1 1 1 1 1 1 1 1 1 1 1 2 2 3 2 1
7 7 7 7 8 8 8 8 8 9 8 8 7 5 4 3 2 2 2 3 3 3 2 1 1 1 1 1 1 1 1 1 1 1 1 1 0 1 1 2 2 1 1
7 7 7 7 7 7 8 9 10 10 11 10 9 8 6 5 3 2 2 2 3 3 2 2 1 1 1 1 1 1 1 1 1 1 1 1 1 1 1 1 2 1 1
7 7 6 7 7 7 7 8 9 10 11 11 11 10 9 6 3 2 1 2 2 2 2 2 2 1 1 1 1 1 0 0 1 1 1 1 1 1 1 1 1 1 1
6 6 6 7 7 7 7 7 8 9 10 10 11 11 10 7 4 2 1 2 2 2 2 2 2 1 1 1 1 1 1 1 1 1 1 1 1 1 1 1 1 1 1
5 6 7 7 8 7 7 7 7 8 9 10 11 11 11 8 5 2 1 2 3 3 2 2 1 1 1 0 0 1 1 1 1 1 1 1 1 1 1 1 1 2 2
4 6 8 9 9 8 8 7 7 8 9 10 11 12 11 9 6 3 1 1 2 3 3 2 2 1 1 0 0 1 1 1 2 2 2 2 1 1 1 1 1 1 2
4 5 7 9 9 9 9 9 8 9 10 10 11 11 11 10 9 6 3 1 1 2 3 2 2 1 1 1 1 1 1 2 3 3 3 3 2 2 2 1 1 1 1
3 4 5 6 7 8 9 9 8 8 9 10 11 11 11 11 12 11 8 3 1 2 2 2 1 1 1 1 2 2 2 3 3 4 4 3 3 3 2 2 2 1 1
3 3 4 5 6 7 8 7 6 6 7 9 9 10 9 10 11 12 10 5 2 1 2 2 2 1 1 2 2 3 3 3 4 4 4 4 4 3 3 2 2 2 2
3 3 4 5 7 8 7 6 5 5 5 5 5 6 6 7 7 7 5 3 1 1 3 3 4 3 3 3 3 3 3 3 4 5 5 4 4 4 3 3 3 2 2
4 4 5 6 8 8 8 7 5 4 3 3 2 2 2 3 3 2 1 1 0 1 3 5 5 5 5 4 3 3 3 3 4 4 4 4 3 4 4 3 3 2 2
4 4 5 6 8 8 8 7 6 4 3 3 2 1 1 1 1 0 0 0 1 1 2 4 4 5 5 4 3 3 3 3 3 3 3 3 3 4 4 3 3 3 3
3 3 4 5 6 6 6 6 5 4 4 4 3 1 1 0 0 0 0 1 1 1 1 2 2 2 2 2 2 2 2 2 2 2 2 2 3 3 3 3 3 2 2
2 2 3 4 4 4 4 4 3 3 4 4 3 2 1 0 0 0 0 0 1 1 1 1 1 1 1 1 1 1 1 1 1 1 1 1 1 1 1 1 1 1 1
1 1 2 3 4 4 4 3 3 2 3 4 3 1 1 1 1 1 1 1 1 1 0 0 0 0 0 0 0 0 0 0 0 0 0 0 0 0 1 1 1 1 1
2 1 1 2 4 5 5 4 3 3 3 3 3 2 1 1 1 1 1 1 1 1 0 0 0 0 0 0 0 0 0 0 0 0 0 0 0 0 0 0 0 0 0
2 2 1 2 3 5 6 6 5 4 3 3 3 3 2 2 2 2 2 2 1 1 0 0 0 0 0 0 0 0 0 0 0 0 0 0 0 0 0 0 0 0 0
3 2 2 1 2 3 5 6 7 6 5 4 4 4 4 3 3 3 3 2 2 1 1 0 0 0 0 0 0 0 0 0 0 0 0 0 0 0 0 0 0 0 0
2 2 2 1 2 2 2 4 5 6 6 6 5 4 4 3 3 3 3 3 2 2 1 1 0 0 0 0 0 0 0 0 0 0 0 0 0 0 0 0 0 0 0
1 2 2 1 2 2 1 1 3 4 6 6 5 5 4 3 3 3 3 3 3 2 1 1 0 0 0 0 0 0 0 0 0 0 0 0 0 0 0 0 0 0 0
Wind_Speed
6 6 5 4 4 4 4 4 4 3 3 3 3 3 2 1 1 1 1 1 0 1 1 0 1 1 1 1 0 0 1 2 2 3 2 2 1 2 2 1 1 2 2
6 6 5 5 4 4 3 3 4 3 3 3 3 3 3 2 1 2 1 1 1 1 2 1 2 1 1 1 1 1 1 2 2 3 2 2 2 2 1 2 2 1 2
5 6 5 5 5 4 4 3 3 3 2 2 3 3 3 2 2 2 2 2 1 2 2 1 2 1 2 1 1 1 2 1 1 2 2 2 2 1 1 2 2 2 2
6 6 5 5 5 5 4 4 3 3 3 2 2 2 2 3 2 2 2 2 1 1 1 1 1 1 2 2 2 2 2 1 1 1 1 1 2 2 1 1 2 2 2
6 5 5 5 4 4 4 4 3 3 3 3 2 1 2 2 2 2 2 2 2 1 1 1 2 2 2 2 1 2 2 2 1 1 1 1 1 1 1 1 2 3 3
6 5 4 4 4 4 4 4 3 3 3 3 3 2 2 2 3 4 3 3 2 2 2 2 2 2 3 3 2 2 3 3 3 2 2 2 3 3 2 2 1 1 3
5 4 4 4 4 4 4 3 4 4 3 3 3 3 3 3 3 3 4 3 3 2 2 2 2 2 2 2 3 3 3 3 4 4 3 4 4 4 3 2 2 3 4
4 3 4 4 4 4 3 3 3 3 3 3 3 3 3 3 3 3 2 2 2 2 3 3 2 2 2 1 2 2 2 3 3 3 4 5 5 4 4 4 4 3 3
3 4 4 5 4 4 4 4 3 2 2 2 2 2 3 2 2 3 2 1 1 2 2 2 2 2 3 1 0 1 3 3 3 3 4 4 4 4 2 0 1 0 2
3 3 4 4 4 4 4 4 2 2 2 2 1 2 3 2 2 3 3 2 1 2 2 2 3 3 3 2 2 2 3 4 3 3 3 4 3 3 3 3 3 3 2
1 1 2 3 4 4 3 3 2 2 2 2 2 2 2 3 3 3 3 2 2 2 2 3 3 5 4 4 4 4 6 5 3 2 2 2 2 2 2 2 3 3 3
1 1 1 2 2 2 2 2 2 3 3 2 2 2 2 2 3 3 4 4 3 3 3 3 4 6 6 5 4 5 6 3 1 1 1 1 2 2 3 3 3 3 3
1 0 1 1 1 2 3 3 2 3 2 2 3 3 3 2 3 4 4 4 4 3 3 5 6 6 5 4 5 5 2 1 1 1 2 3 3 3 2 2 2 1 2
1 0 1 1 1 1 2 2 3 3 3 3 3 3 2 2 2 2 2 2 3 3 3 4 5 4 3 3 3 2 1 2 2 3 3 2 2 1 1 1 1 1 1
1 1 1 1 1 1 1 1 2 3 4 4 4 4 4 3 5 5 3 3 3 3 1 1 1 1 1 2 2 2 1 1 2 2 2 2 2 1 2 1 1 1 1
1 1 1 1 1 1 1 1 3 2 4 5 5 5 4 5 5 4 4 4 4 3 2 1 2 2 2 2 2 2 2 2 2 2 2 2 2 2 2 1 1 1 2
2 2 1 1 2 2 1 1 1 3 2 3 4 5 4 4 4 4 4 3 3 4 2 2 2 2 3 2 2 2 3 3 2 2 2 3 3 3 2 2 2 2 2
2 2 2 2 2 2 2 2 2 2 2 2 3 4 4 4 5 5 4 2 1 1 2 3 3 3 3 3 3 3 3 3 2 2 3 3 3 2 2 2 2 3 3
1 1 2 2 2 2 2 2 2 2 2 2 1 2 3 3 2 2 3 2 3 3 3 3 3 3 3 3 3 3 3 3 3 3 3 3 2 2 2 3 3 3 2
1 2 1 1 1 1 1 1 2 2 2 2 2 2 1 1 1 1 2 2 3 3 4 4 3 3 3 3 2 2 2 2 3 2 3 3 2 2 3 3 3 3 3
2 2 2 1 1 2 2 2 2 2 2 3 3 3 4 3 3 3 3 3 4 4 4 4 3 3 3 3 2 2 2 2 2 3 3 3 2 3 3 3 3 3 2
1 1 1 1 1 1 2 2 2 2 3 3 2 2 4 2 3 3 3 4 4 4 4 3 3 3 3 3 3 3 2 2 3 3 3 3 3 3 3 2 2 2 2
1 1 1 1 1 2 2 2 2 2 3 3 3 2 2 3 3 3 3 4 3 3 3 3 3 3 2 2 2 3 3 3 3 3 3 3 3 3 2 2 3 3 3
1 2 2 2 1 1 2 2 2 3 3 3 3 3 3 3 3 3 3 3 2 2 2 3 3 4 4 3 2 2 2 2 2 3 4 3 3 3 3 3 3 3 3
1 2 2 2 2 2 2 3 3 3 3 3 3 3 3 3 3 3 2 2 2 2 2 2 2 3 4 4 3 2 2 2 2 2 2 2 3 3 3 3 3 3 3
2 2 2 2 3 3 3 3 3 3 3 3 3 3 3 3 3 2 2 2 2 2 2 2 2 3 3 3 3 3 2 2 2 3 2 2 3 3 3 2 3 3 3
Wind_Direction
165 164 163 165 166 163 167 176 179 178 174 172 174 169 168 180 180 163 180 151 147 301 301 277 276 277 308 303 290 226 190 173 217 270 276 283 290 297 308 292 275 261 260
163 158 167 160 156 160 176 181 173 177 180 177 174 175 184 190 199 196 209 196 192 247 272 272 275 291 314 302 282 251 236 205 195 243 272 286 283 276 282 277 283 289 268
154 160 165 165 164 169 177 187 174 172 176 177 173 183 194 195 195 197 189 194 205 227 247 258 277 261 275 267 244 240 244 247 210 207 252 269 278 291 313 305 310 303 296
156 160 168 177 177 179 176 181 182 175 171 179 183 185 191 188 180 185 182 183 191 226 240 236 246 236 249 256 239 221 217 229 224 209 247 274 276 282 307 289 310 309 295
156 161 175 178 174 173 173 174 184 182 174 173 172 176 182 187 191 185 189 179 174 222 276 267 257 268 290 269 250 220 202 206 206 202 232 259 278 293 280 265 272 290 290
160 172 175 168 168 175 180 177 181 185 184 178 188 193 200 211 200 193 179 182 188 202 238 272 277 292 314 316 284 234 205 203 205 204 215 222 240 238 245 253 252 286 291
158 165 165 167 173 183 186 182 190 196 193 199 204 197 211 227 202 187 185 180 194 213 231 251 274 300 314 306 300 292 275 247 206 194 205 226 227 225 218 242 240 236 250
146 159 171 176 185 188 184 192 205 199 197 204 206 205 206 223 207 191 182 190 209 226 232 228 234 261 281 315 320 324 303 280 246 217 214 233 234 227 211 215 229 249 274
158 179 189 187 188 189 195 202 206 195 200 207 203 196 189 220 204 185 163 182 217 250 247 239 236 243 276 326 357 306 309 301 292 286 271 269 269 258 243 197 279 250 287
187 197 198 194 191 197 200 202 199 186 195 188 201 200 189 210 204 183 176 181 213 256 269 260 257 253 262 262 220 232 262 271 290 306 308 309 293 288 275 213 206 212 237
210 193 205 204 200 201 194 187 176 170 164 171 189 209 204 209 209 197 184 180 202 231 253 272 273 272 267 267 250 227 234 244 249 253 276 291 296 291 280 248 208 198 210
173 198 219 214 207 189 173 174 171 169 171 192 197 219 234 225 219 216 206 207 207 208 239 255 270 277 272 270 256 253 255 249 221 226 270 285 284 281 277 274 254 229 221
108 197 224 213 202 185 179 180 179 177 179 201 201 214 237 240 237 229 221 224 231 224 238 257 276 287 286 277 276 281 275 208 184 217 245 251 250 257 275 296 311 299 289
134 271 237 195 207 204 194 185 184 190 194 206 208 216 231 240 237 235 237 237 242 248 262 277 287 293 299 291 301 296 251 211 196 212 232 248 259 274 283 275 289 314 323
180 230 220 199 195 194 216 218 209 212 202 200 211 205 204 229 239 227 213 219 221 225 231 325 332 319 309 301 295 288 268 241 223 234 234 248 263 269 274 272 258 265 270
198 242 234 210 209 195 190 317 310 261 230 217 214 207 222 228 228 230 237 236 228 192 154 208 246 254 251 246 257 271 263 245 236 230 235 236 240 246 263 271 236 231 255
224 236 232 214 203 214 204 196 282 317 297 246 228 217 216 225 217 214 218 221 205 165 176 233 243 244 249 246 243 243 246 246 234 227 235 239 239 240 240 247 239 239 254
249 244 228 217 209 214 220 220 212 217 263 291 274 236 221 221 215 208 195 145 150 188 215 232 244 244 245 245 248 248 248 249 239 233 237 244 240 236 237 236 235 237 250
250 251 241 221 210 212 214 216 229 233 232 243 268 277 236 219 220 213 164 170 201 224 234 236 239 238 238 237 240 241 240 240 241 234 234 238 236 226 232 232 234 244 248
250 265 257 214 212 218 220 215 224 229 227 221 227 232 196 154 184 208 197 209 220 231 236 238 239 237 234 234 238 243 252 253 249 246 249 243 233 226 230 229 228 233 239
249 258 251 222 216 220 219 225 226 223 222 220 231 229 196 193 205 211 212 216 224 234 239 238 237 232 230 226 222 234 247 254 252 248 249 248 241 236 237 231 228 232 236
239 244 234 229 230 233 233 223 223 224 222 226 243 239 219 220 219 222 227 232 234 235 232 224 228 230 225 222 219 217 227 244 257 255 247 243 242 245 243 233 236 239 229
231 236 250 254 248 259 262 241 228 226 226 227 226 225 220 232 235 230 234 241 239 239 233 222 222 229 227 221 221 217 219 235 247 244 240 242 244 243 239 235 233 233 237
211 226 238 254 260 257 258 256 242 235 228 225 224 222 224 229 235 235 235 237 238 243 234 219 215 220 218 214 219 227 229 245 253 245 239 232 236 238 231 229 234 234 233
219 230 243 251 252 256 259 256 251 245 234 227 225 226 227 226 232 237 236 233 230 232 235 220 208 209 207 208 214 224 246 260 267 276 257 232 230 234 231 228 231 229 228
232 238 238 239 241 244 241 242 244 240 238 241 236 230 224 220 221 224 228 228 237 235 237 232 223 214 207 212 221 214 213 236 264 275 255 231 225 235 240 242 236 227 224